Skip Page Navigation
NASA JPL Caltech
NASA Logo - Jet Propulsion Laboratory + View the NASA Portal
+ Center for Near-Earth Object Studies
JPL Home Earth Solar System Stars & Galaxies Technology
JPL Solar System Dynamics
BODIES ORBITS EPHEMERIDES TOOLS PHYSICAL DATA DISCOVERY FAQ SITE MAP
IMPORTANT: The SSD Announcement email list is now available. Major changes are coming in the near future, including possible hostname and/or URL changes. To be notified of such changes, subscribe to this email list.

Please visit this page for more details.


JPL Small-Body Database Browser
Search: [ help ]  
268037 (2004 PL75)
Classification: Inner Main-belt Asteroid          SPK-ID: 2268037
Ephemeris | Orbit Diagram | Orbital Elements | Mission Design | Physical Parameters | Discovery Circumstances ]

[ show orbit diagram ]
Orbital Elements at Epoch 2458600.5 (2019-Apr-27.0) TDB
Reference: JPL 11 (heliocentric ecliptic J2000)
 Element Value Uncertainty (1-sigma)   Units 
e .07164903215661779 1.2752e-07  
a 1.916702242755811 1.2603e-08 au
q 1.779372382129938 2.4635e-07 au
i 22.29357853806905 1.7019e-05 deg
node 177.0084878193273 1.876e-05 deg
peri 183.973349511048 6.0735e-05 deg
M 184.1826207545369 5.9356e-05 deg
tp 2459073.857981951610
(2020-Aug-12.35798195)
0.00016229 TDB
period 969.2379344630514
2.65
9.5599e-06
2.617e-08
d
yr
n .3714258255888804 3.6635e-09 deg/d
Q 2.054032103381684 1.3506e-08 au
  Orbit Determination Parameters
   # obs. used (total)      262  
   data-arc span      8295 days (22.71 yr)  
   first obs. used      1996-09-14  
   last obs. used      2019-06-01  
   planetary ephem.      DE431  
   SB-pert. ephem.      SB431-N16  
   condition code      0  
   norm. resid. RMS      .71368  
   source      ORB  
   producer      Otto Matic  
   solution date      2019-Sep-24 04:38:20  

Additional Information
 Earth MOID = .774976 au 
 Jupiter MOID = 3.17989 au 
 T_jup = 3.835 
[ show covariance matrix ]

Ephemeris | Orbit Diagram | Orbital Elements | Mission Design | Physical Parameters | Discovery Circumstances ]

Physical Parameter Table
Parameter Symbol Value Units Sigma Reference Notes
absolute magnitude H 16.9   n/a MPO476131  

268037 (2004 PL75)          Discovered 2004-Aug-08 by LONEOS at Anderson Mesa
Reference: 20110319/Numbers.arcLast Updated: 2011-03-23
Ephemeris | Orbit Diagram | Orbital Elements | Mission Design | Physical Parameters | Discovery Circumstances ]
ABOUT SSD CREDITS/AWARDS PRIVACY/COPYRIGHT GLOSSARY LINKS
FirstGov 2020-Jan-29 18:40 UT
(server date/time)  
NASA Home Page
Site Manager:   Ryan S. Park
Webmaster  Alan B. Chamberlin